Location: �chenoz-la-M�line
(47.6009°N, 6.1354°E)
Time: 23:56:02
(UTC+00:00)

Cosmos 1814 Rocket - Pass Details

Date: 13 May 2021
Orbit: 745 x 786 km, 74.1° (Epoch: 21 June)

Event Time Altitude Azimuth Distance (km) Brightness Sun altitude
Rises 19:46:41 0° 319° (NW) 3,233 9.3 -6.9°
Reaches altitude 10° 19:50:34 10° 291° (WNW) 2,291 7.9 -7.4°
Maximum altitude 19:52:33 12° 268° (W) 2,133 7.1 -7.6°
Drops below altitude 10° 19:54:31 10° 245° (WSW) 2,275 6.8 -7.9°
Sets 19:58:21 0° 216° (SW) 3,185 7.2 -8.4°
